Weather in Kulu

Russia / Magadan District     61°53′06″N   147°25′55″E
temp.,
°C
wind,
m/s
gust,
m/s
humid.,
%
clouds,
%
prec.,
mm/h
press.,
hPa
HPBL,
m
17 august, wed
wed1723:00+9nne2283100 0.1 99931
02:00+8nne2285100 0.0 99856
05:00+7n2394100 0.9 999161
08:00+7n2393100 0.8 999190
11:00+8n3390100 1.1 999302
14:00+9n2388100 0.2 998369
17:00+9n2288100 0.3 999254
20:00+8ne1193100 0.1 99916
18 august, thu
thu1823:00+8se119191 0.1 99912
02:00+5sse229299 0.0 99911
05:00+6se229196 0.0 100016
08:00+9sse238287 0.0 999242
11:00+12s3472100 0.0 998608
14:00+15s456191 0.0 9971208
17:00+15ssw476894 0.8 997978
20:00+12s5780100 0.3 999223
19 august, fri
fri1923:00+10s5790100 0.3 1001162
02:00+9sse4693100 0.1 1001200
05:00+9ese2296100 2.9 100234
08:00+9se2395100 3.6 1002134
11:00+9sse2391100 5.6 1002289
14:00+9sse2486100 0.3 1002423
17:00+8s2393100 2.6 1002217
20:00+7ssw2493100 4.2 1003200
20 august, sat
sat2023:00+6ssw2395100 5.2 1003177
02:00+6s3594100 0.6 1004191
05:00+7s3694100 0.6 1004186
08:00+7ssw4693100 0.1 1005337
11:00+9ssw3583100 0.1 1006596
14:00+11ssw347459 0.0 1007769
17:00+12ssw336497 0.1 10071131
20:00+11s3369100 0.0 100850
21 august, sun
sun2123:00+8s3480100 0.0 100948
02:00+6s3387100 0.0 101019
05:00+5sse228996 0.0 101010
08:00+9ene1176100 0.0 1009141
11:00+12ne1264100 0.0 1007634
14:00+14ene2255100 0.0 10051023
17:00+14ne1162100 0.0 1004246
20:00+10ssw1182100 0.4 100412